Precipitable_Water
0.63 0.63 0.63 0.63 0.61 0.61 0.60 0.59 0.59 0.58 0.57 0.58 0.56 0.57 0.57 0.57 0.56 0.55 0.53 0.53 0.52 0.52 0.51 0.50 0.49 0.49 0.48 0.47 0.47 0.46 0.46 0.37 0.30 0.26 0.24 0.20 0.24 0.24 0.34 0.33 0.35 0.39 0.41 0.34 0.27 0.21 0.20 0.21 0.19 0.26 0.30 0.29 0.27 0.25 0.27 0.26 0.24 0.21 0.16 0.14 0.11 0.12 0.11 0.15 0.16 0.18 0.19 0.18 0.19 0.20 0.22 0.22 0.20 0.24 0.31 0.50 0.49 0.48 0.52 0.55 0.67 0.78 0.82 0.89 0.99 1.04 1.13 1.18
0.65 0.64 0.64 0.63 0.62 0.61 0.61 0.62 0.61 0.61 0.60 0.59 0.58 0.56 0.58 0.58 0.56 0.56 0.56 0.54 0.52 0.52 0.51 0.50 0.48 0.48 0.47 0.46 0.46 0.47 0.43 0.36 0.27 0.27 0.23 0.24 0.27 0.27 0.30 0.36 0.37 0.38 0.40 0.27 0.23 0.19 0.19 0.19 0.20 0.25 0.28 0.23 0.29 0.22 0.24 0.20 0.22 0.17 0.15 0.14 0.10 0.12 0.13 0.18 0.20 0.21 0.20 0.19 0.19 0.20 0.22 0.22 0.21 0.22 0.24 0.37 0.35 0.37 0.42 0.54 0.62 0.66 0.78 0.92 0.97 1.03 1.04 1.08
0.65 0.65 0.64 0.64 0.63 0.62 0.63 0.63 0.64 0.63 0.62 0.61 0.59 0.58 0.56 0.56 0.56 0.54 0.54 0.53 0.53 0.51 0.50 0.49 0.47 0.46 0.45 0.46 0.47 0.48 0.41 0.30 0.30 0.25 0.33 0.33 0.29 0.28 0.29 0.37 0.39 0.44 0.33 0.24 0.23 0.20 0.19 0.22 0.26 0.25 0.24 0.21 0.24 0.20 0.21 0.20 0.19 0.18 0.15 0.12 0.12 0.14 0.16 0.18 0.21 0.21 0.22 0.20 0.19 0.19 0.20 0.21 0.22 0.22 0.23 0.36 0.35 0.35 0.36 0.45 0.57 0.54 0.65 0.78 0.89 0.98 1.00 1.01
0.63 0.64 0.64 0.64 0.64 0.64 0.64 0.64 0.65 0.65 0.64 0.62 0.60 0.59 0.57 0.55 0.54 0.54 0.54 0.53 0.51 0.50 0.49 0.48 0.46 0.45 0.45 0.45 0.48 0.47 0.40 0.35 0.32 0.40 0.43 0.45 0.36 0.29 0.29 0.36 0.39 0.42 0.37 0.31 0.26 0.22 0.23 0.28 0.28 0.27 0.25 0.21 0.21 0.22 0.18 0.20 0.17 0.18 0.15 0.12 0.13 0.16 0.15 0.17 0.21 0.22 0.21 0.20 0.19 0.20 0.20 0.21 0.22 0.23 0.22 0.41 0.34 0.38 0.42 0.44 0.42 0.50 0.65 0.78 0.88 0.92 0.95 0.94
0.62 0.64 0.65 0.64 0.64 0.64 0.64 0.64 0.66 0.66 0.65 0.64 0.62 0.59 0.57 0.55 0.54 0.53 0.53 0.52 0.50 0.48 0.46 0.46 0.46 0.45 0.45 0.45 0.45 0.47 0.35 0.28 0.35 0.52 0.55 0.51 0.44 0.33 0.33 0.37 0.40 0.40 0.35 0.31 0.27 0.24 0.26 0.28 0.27 0.26 0.23 0.18 0.21 0.20 0.18 0.20 0.19 0.18 0.15 0.16 0.16 0.17 0.16 0.19 0.21 0.22 0.20 0.20 0.19 0.19 0.19 0.19 0.22 0.21 0.21 0.24 0.35 0.31 0.36 0.46 0.48 0.57 0.71 0.76 0.83 0.89 0.95 0.96
0.57 0.60 0.63 0.64 0.64 0.65 0.65 0.64 0.66 0.66 0.65 0.64 0.63 0.61 0.58 0.55 0.53 0.52 0.52 0.52 0.51 0.48 0.45 0.45 0.45 0.44 0.44 0.45 0.43 0.45 0.30 0.15 0.49 0.54 0.60 0.55 0.54 0.37 0.34 0.39 0.41 0.38 0.32 0.26 0.23 0.23 0.25 0.26 0.25 0.22 0.21 0.20 0.18 0.17 0.18 0.19 0.20 0.15 0.16 0.16 0.17 0.18 0.17 0.19 0.20 0.21 0.20 0.19 0.18 0.17 0.19 0.20 0.20 0.20 0.21 0.21 0.21 0.30 0.43 0.53 0.61 0.67 0.73 0.78 0.83 0.90 0.94 0.97
0.54 0.58 0.60 0.62 0.64 0.64 0.64 0.64 0.66 0.66 0.65 0.64 0.63 0.62 0.60 0.57 0.53 0.51 0.51 0.51 0.50 0.47 0.45 0.43 0.43 0.44 0.43 0.46 0.46 0.39 0.29 0.30 0.45 0.54 0.60 0.58 0.54 0.44 0.36 0.39 0.40 0.29 0.27 0.23 0.20 0.21 0.24 0.24 0.25 0.23 0.21 0.19 0.19 0.18 0.19 0.19 0.20 0.17 0.14 0.16 0.16 0.17 0.17 0.19 0.19 0.19 0.19 0.18 0.18 0.19 0.20 0.18 0.20 0.18 0.26 0.22 0.26 0.33 0.53 0.61 0.67 0.76 0.84 0.90 0.85 0.91 0.91 0.94
0.49 0.52 0.56 0.58 0.62 0.63 0.63 0.64 0.66 0.66 0.66 0.64 0.64 0.62 0.59 0.57 0.54 0.51 0.50 0.49 0.48 0.47 0.46 0.43 0.44 0.44 0.45 0.43 0.33 0.28 0.30 0.28 0.46 0.61 0.55 0.53 0.50 0.45 0.40 0.36 0.30 0.27 0.23 0.18 0.19 0.22 0.24 0.24 0.23 0.26 0.22 0.18 0.18 0.18 0.19 0.18 0.18 0.16 0.14 0.16 0.16 0.17 0.17 0.18 0.19 0.18 0.18 0.18 0.18 0.18 0.17 0.17 0.19 0.19 0.25 0.26 0.36 0.49 0.63 0.68 0.72 0.80 0.85 0.91 0.89 0.90 0.94 0.97
0.47 0.47 0.50 0.54 0.58 0.61 0.63 0.64 0.65 0.66 0.66 0.65 0.63 0.61 0.60 0.58 0.55 0.52 0.49 0.48 0.47 0.46 0.45 0.45 0.42 0.43 0.50 0.43 0.33 0.24 0.27 0.45 0.50 0.55 0.49 0.41 0.38 0.37 0.35 0.28 0.27 0.23 0.19 0.18 0.23 0.27 0.27 0.25 0.25 0.26 0.18 0.18 0.20 0.18 0.18 0.16 0.14 0.16 0.15 0.16 0.16 0.16 0.17 0.17 0.17 0.18 0.17 0.17 0.18 0.16 0.15 0.17 0.18 0.22 0.27 0.39 0.50 0.61 0.66 0.71 0.73 0.78 0.81 0.83 0.86 0.91 0.95 1.00
0.47 0.47 0.47 0.48 0.53 0.57 0.60 0.63 0.64 0.66 0.66 0.64 0.63 0.61 0.61 0.60 0.58 0.56 0.51 0.48 0.47 0.45 0.45 0.45 0.45 0.45 0.42 0.38 0.34 0.18 0.40 0.46 0.51 0.48 0.40 0.36 0.31 0.30 0.29 0.28 0.23 0.19 0.16 0.21 0.26 0.27 0.27 0.26 0.25 0.26 0.24 0.19 0.18 0.16 0.17 0.16 0.15 0.16 0.16 0.16 0.16 0.16 0.16 0.17 0.16 0.17 0.18 0.17 0.17 0.15 0.15 0.15 0.17 0.17 0.33 0.50 0.61 0.68 0.71 0.73 0.78 0.75 0.76 0.82 0.87 0.95 1.03 1.05
0.46 0.47 0.46 0.46 0.47 0.51 0.56 0.59 0.62 0.64 0.65 0.64 0.63 0.63 0.61 0.60 0.59 0.58 0.56 0.51 0.47 0.46 0.44 0.45 0.47 0.46 0.38 0.40 0.27 0.23 0.53 0.43 0.42 0.39 0.33 0.28 0.25 0.22 0.22 0.23 0.21 0.17 0.19 0.25 0.27 0.30 0.29 0.28 0.29 0.30 0.24 0.18 0.18 0.17 0.17 0.16 0.18 0.17 0.18 0.17 0.17 0.16 0.17 0.16 0.16 0.17 0.17 0.16 0.16 0.16 0.15 0.16 0.17 0.18 0.24 0.42 0.65 0.66 0.64 0.71 0.75 0.76 0.78 0.82 0.88 0.95 0.99 0.97
0.46 0.46 0.46 0.46 0.45 0.46 0.51 0.55 0.59 0.61 0.63 0.63 0.63 0.63 0.62 0.61 0.60 0.60 0.58 0.54 0.48 0.46 0.45 0.46 0.48 0.48 0.43 0.36 0.30 0.29 0.53 0.41 0.39 0.35 0.31 0.23 0.20 0.20 0.22 0.21 0.19 0.19 0.24 0.25 0.29 0.31 0.33 0.32 0.32 0.29 0.19 0.24 0.17 0.19 0.17 0.21 0.20 0.19 0.19 0.15 0.15 0.16 0.15 0.16 0.16 0.16 0.17 0.15 0.16 0.17 0.15 0.15 0.17 0.16 0.26 0.46 0.71 0.71 0.61 0.64 0.72 0.75 0.77 0.80 0.88 0.90 0.90 0.91
0.45 0.45 0.44 0.44 0.44 0.45 0.46 0.51 0.54 0.58 0.61 0.61 0.62 0.63 0.63 0.62 0.60 0.61 0.61 0.57 0.52 0.46 0.46 0.46 0.46 0.49 0.39 0.23 0.28 0.40 0.45 0.45 0.37 0.33 0.31 0.23 0.20 0.22 0.23 0.25 0.25 0.26 0.30 0.30 0.30 0.32 0.34 0.33 0.32 0.24 0.25 0.22 0.21 0.17 0.21 0.22 0.21 0.20 0.18 0.15 0.14 0.14 0.12 0.14 0.16 0.16 0.16 0.15 0.16 0.16 0.11 0.14 0.16 0.18 0.35 0.51 0.66 0.70 0.63 0.63 0.70 0.73 0.76 0.80 0.82 0.81 0.86 0.93
0.43 0.44 0.44 0.44 0.44 0.44 0.45 0.46 0.50 0.54 0.57 0.59 0.60 0.61 0.61 0.61 0.60 0.61 0.62 0.59 0.57 0.51 0.50 0.47 0.48 0.48 0.40 0.24 0.34 0.43 0.45 0.52 0.41 0.31 0.28 0.27 0.25 0.25 0.29 0.32 0.34 0.33 0.33 0.32 0.33 0.34 0.33 0.31 0.27 0.24 0.24 0.21 0.19 0.24 0.20 0.20 0.21 0.16 0.17 0.15 0.12 0.11 0.09 0.13 0.14 0.15 0.14 0.17 0.16 0.17 0.12 0.14 0.18 0.20 0.38 0.57 0.63 0.61 0.59 0.64 0.66 0.68 0.74 0.76 0.80 0.80 0.82 0.93
0.42 0.43 0.43 0.43 0.43 0.43 0.43 0.43 0.46 0.49 0.53 0.55 0.55 0.56 0.57 0.57 0.59 0.61 0.64 0.58 0.58 0.57 0.53 0.53 0.51 0.41 0.31 0.29 0.48 0.50 0.48 0.52 0.37 0.28 0.28 0.22 0.24 0.24 0.29 0.34 0.34 0.35 0.34 0.33 0.32 0.33 0.31 0.29 0.24 0.20 0.17 0.22 0.22 0.19 0.17 0.17 0.18 0.17 0.13 0.11 0.12 0.11 0.11 0.12 0.14 0.14 0.14 0.16 0.18 0.17 0.13 0.14 0.18 0.21 0.37 0.57 0.59 0.61 0.59 0.59 0.61 0.67 0.70 0.73 0.76 0.77 0.81 0.90
0.42 0.42 0.43 0.43 0.44 0.43 0.42 0.42 0.42 0.44 0.46 0.50 0.51 0.52 0.54 0.56 0.59 0.61 0.63 0.62 0.59 0.58 0.57 0.45 0.49 0.42 0.29 0.21 0.42 0.58 0.42 0.31 0.30 0.31 0.28 0.22 0.24 0.21 0.27 0.29 0.31 0.32 0.33 0.33 0.33 0.31 0.30 0.26 0.21 0.20 0.19 0.20 0.19 0.17 0.17 0.15 0.15 0.16 0.14 0.12 0.13 0.15 0.15 0.14 0.15 0.17 0.18 0.18 0.19 0.18 0.15 0.17 0.19 0.22 0.25 0.51 0.58 0.61 0.57 0.58 0.62 0.65 0.68 0.72 0.72 0.73 0.77 0.84
0.43 0.41 0.42 0.43 0.44 0.43 0.43 0.42 0.41 0.41 0.42 0.45 0.48 0.50 0.53 0.56 0.59 0.60 0.63 0.62 0.58 0.60 0.55 0.35 0.44 0.47 0.21 0.47 0.53 0.38 0.36 0.33 0.34 0.29 0.26 0.28 0.29 0.26 0.26 0.24 0.25 0.26 0.29 0.29 0.29 0.26 0.25 0.21 0.22 0.20 0.20 0.18 0.19 0.18 0.14 0.13 0.13 0.15 0.18 0.16 0.17 0.17 0.17 0.15 0.18 0.19 0.19 0.19 0.17 0.19 0.17 0.18 0.20 0.22 0.28 0.47 0.62 0.61 0.57 0.58 0.63 0.64 0.65 0.68 0.70 0.69 0.70 0.75
0.42 0.41 0.41 0.43 0.44 0.44 0.43 0.42 0.42 0.41 0.42 0.43 0.48 0.55 0.60 0.67 0.73 0.72 0.66 0.60 0.61 0.59 0.54 0.55 0.47 0.36 0.24 0.40 0.34 0.35 0.41 0.34 0.31 0.27 0.28 0.31 0.32 0.30 0.29 0.24 0.22 0.22 0.23 0.23 0.22 0.19 0.21 0.17 0.19 0.15 0.16 0.18 0.18 0.17 0.13 0.11 0.15 0.15 0.18 0.21 0.22 0.22 0.20 0.17 0.17 0.19 0.20 0.19 0.18 0.19 0.18 0.18 0.20 0.25 0.36 0.40 0.51 0.50 0.51 0.55 0.61 0.64 0.66 0.70 0.74 0.71 0.72 0.75
0.41 0.41 0.40 0.40 0.44 0.45 0.45 0.45 0.43 0.43 0.43 0.48 0.56 0.66 0.73 0.78 0.83 0.85 0.72 0.65 0.46 0.30 0.20 0.24 0.24 0.14 0.24 0.33 0.41 0.42 0.40 0.37 0.30 0.27 0.25 0.29 0.31 0.31 0.29 0.28 0.24 0.22 0.18 0.18 0.19 0.21 0.20 0.19 0.18 0.14 0.12 0.14 0.15 0.16 0.14 0.18 0.19 0.18 0.19 0.22 0.24 0.22 0.22 0.21 0.21 0.22 0.21 0.18 0.18 0.18 0.17 0.19 0.20 0.28 0.35 0.37 0.43 0.43 0.46 0.53 0.59 0.62 0.64 0.68 0.69 0.68 0.72 0.76
0.39 0.40 0.39 0.38 0.41 0.45 0.47 0.49 0.50 0.49 0.51 0.53 0.60 0.65 0.66 0.57 0.53 0.53 0.61 0.56 0.42 0.37 0.32 0.26 0.28 0.30 0.33 0.33 0.33 0.48 0.51 0.37 0.29 0.25 0.28 0.30 0.28 0.27 0.25 0.25 0.23 0.23 0.21 0.18 0.20 0.22 0.22 0.16 0.11 0.10 0.12 0.14 0.18 0.19 0.21 0.22 0.22 0.21 0.23 0.24 0.24 0.24 0.23 0.23 0.22 0.21 0.20 0.18 0.19 0.19 0.19 0.20 0.22 0.29 0.33 0.35 0.39 0.40 0.43 0.48 0.52 0.57 0.60 0.62 0.63 0.65 0.70 0.77
0.39 0.39 0.39 0.39 0.39 0.44 0.47 0.52 0.55 0.55 0.57 0.58 0.59 0.53 0.41 0.41 0.33 0.30 0.40 0.44 0.46 0.43 0.38 0.35 0.34 0.35 0.34 0.37 0.39 0.41 0.38 0.35 0.33 0.28 0.28 0.31 0.30 0.25 0.23 0.23 0.21 0.19 0.20 0.22 0.21 0.26 0.23 0.16 0.14 0.14 0.18 0.20 0.21 0.24 0.28 0.27 0.26 0.25 0.24 0.24 0.24 0.24 0.22 0.23 0.23 0.20 0.20 0.19 0.19 0.22 0.20 0.21 0.24 0.28 0.29 0.31 0.33 0.35 0.38 0.45 0.48 0.52 0.55 0.56 0.57 0.61 0.67 0.76
0.38 0.39 0.38 0.38 0.40 0.39 0.43 0.49 0.53 0.58 0.58 0.57 0.54 0.46 0.45 0.45 0.51 0.55 0.45 0.31 0.40 0.44 0.43 0.37 0.41 0.37 0.43 0.44 0.45 0.47 0.42 0.32 0.29 0.29 0.30 0.28 0.26 0.21 0.22 0.21 0.19 0.18 0.22 0.22 0.22 0.19 0.17 0.14 0.18 0.21 0.25 0.26 0.26 0.28 0.31 0.30 0.27 0.27 0.25 0.25 0.24 0.23 0.24 0.23 0.24 0.21 0.22 0.21 0.20 0.22 0.21 0.22 0.24 0.27 0.29 0.29 0.30 0.37 0.40 0.42 0.46 0.49 0.53 0.55 0.56 0.59 0.67 0.72
0.40 0.39 0.37 0.37 0.38 0.40 0.39 0.44 0.46 0.51 0.51 0.48 0.48 0.51 0.48 0.54 0.59 0.62 0.54 0.41 0.30 0.39 0.38 0.36 0.33 0.36 0.38 0.46 0.49 0.51 0.36 0.29 0.27 0.28 0.28 0.27 0.24 0.22 0.22 0.19 0.20 0.21 0.22 0.22 0.18 0.18 0.16 0.20 0.24 0.27 0.27 0.26 0.26 0.29 0.30 0.29 0.29 0.27 0.25 0.24 0.23 0.24 0.22 0.19 0.22 0.24 0.26 0.22 0.21 0.22 0.22 0.24 0.27 0.28 0.28 0.29 0.29 0.35 0.41 0.43 0.47 0.50 0.49 0.53 0.53 0.56 0.60 0.64
0.39 0.39 0.38 0.36 0.36 0.37 0.40 0.37 0.41 0.42 0.43 0.46 0.51 0.49 0.54 0.60 0.61 0.60 0.48 0.32 0.24 0.25 0.30 0.32 0.33 0.35 0.36 0.35 0.46 0.43 0.36 0.33 0.30 0.27 0.33 0.28 0.21 0.24 0.21 0.22 0.21 0.21 0.20 0.22 0.22 0.21 0.20 0.23 0.27 0.27 0.28 0.27 0.24 0.26 0.26 0.25 0.24 0.26 0.24 0.23 0.24 0.23 0.23 0.22 0.23 0.27 0.27 0.28 0.28 0.24 0.22 0.22 0.24 0.23 0.24 0.28 0.31 0.33 0.40 0.47 0.48 0.50 0.49 0.51 0.53 0.57 0.59 0.59
0.39 0.38 0.38 0.38 0.35 0.36 0.39 0.36 0.29 0.42 0.55 0.54 0.49 0.51 0.59 0.67 0.66 0.64 0.42 0.32 0.32 0.29 0.41 0.34 0.34 0.36 0.39 0.51 0.50 0.37 0.37 0.36 0.33 0.34 0.35 0.32 0.25 0.23 0.20 0.25 0.22 0.19 0.19 0.21 0.22 0.21 0.22 0.25 0.27 0.26 0.27 0.27 0.26 0.25 0.25 0.24 0.21 0.23 0.25 0.23 0.24 0.26 0.25 0.24 0.27 0.28 0.26 0.24 0.27 0.25 0.19 0.19 0.23 0.24 0.24 0.29 0.28 0.32 0.40 0.42 0.43 0.45 0.50 0.53 0.53 0.53 0.57 0.57
0.37 0.38 0.39 0.37 0.36 0.33 0.37 0.24 0.35 0.44 0.44 0.45 0.47 0.44 0.49 0.65 0.67 0.67 0.46 0.28 0.18 0.26 0.39 0.23 0.34 0.29 0.45 0.38 0.42 0.39 0.40 0.32 0.37 0.36 0.37 0.36 0.35 0.29 0.26 0.22 0.22 0.18 0.20 0.21 0.21 0.22 0.22 0.25 0.25 0.25 0.26 0.26 0.26 0.25 0.26 0.24 0.20 0.19 0.21 0.27 0.28 0.29 0.28 0.26 0.25 0.24 0.21 0.20 0.28 0.30 0.20 0.18 0.23 0.22 0.24 0.28 0.29 0.29 0.39 0.40 0.38 0.43 0.47 0.50 0.52 0.54 0.57 0.56
0.36 0.36 0.37 0.37 0.37 0.36 0.22 0.19 0.33 0.29 0.27 0.33 0.38 0.42 0.58 0.62 0.65 0.63 0.37 0.29 0.20 0.42 0.31 0.39 0.36 0.43 0.41 0.39 0.38 0.41 0.26 0.26 0.38 0.40 0.37 0.39 0.33 0.36 0.26 0.23 0.23 0.22 0.25 0.26 0.22 0.19 0.23 0.24 0.24 0.26 0.27 0.26 0.25 0.22 0.25 0.24 0.21 0.17 0.22 0.25 0.28 0.28 0.26 0.26 0.26 0.25 0.23 0.28 0.30 0.29 0.25 0.19 0.19 0.22 0.25 0.28 0.28 0.28 0.29 0.37 0.41 0.45 0.47 0.50 0.54 0.55 0.55 0.56
0.36 0.36 0.36 0.36 0.36 0.37 0.27 0.31 0.33 0.29 0.30 0.39 0.49 0.53 0.61 0.60 0.58 0.56 0.43 0.16 0.12 0.42 0.36 0.39 0.42 0.53 0.45 0.43 0.41 0.34 0.33 0.36 0.29 0.35 0.39 0.41 0.38 0.34 0.30 0.26 0.25 0.24 0.25 0.24 0.16 0.22 0.25 0.25 0.26 0.26 0.27 0.25 0.22 0.22 0.25 0.25 0.20 0.18 0.19 0.24 0.26 0.28 0.28 0.27 0.25 0.25 0.25 0.23 0.20 0.24 0.26 0.20 0.19 0.23 0.27 0.28 0.25 0.26 0.28 0.29 0.35 0.44 0.48 0.50 0.53 0.53 0.53 0.53
0.35 0.36 0.35 0.35 0.34 0.35 0.43 0.39 0.42 0.38 0.48 0.53 0.60 0.60 0.59 0.51 0.40 0.40 0.29 0.14 0.39 0.37 0.49 0.39 0.52 0.41 0.36 0.38 0.37 0.37 0.34 0.37 0.30 0.37 0.41 0.41 0.40 0.35 0.27 0.29 0.28 0.27 0.27 0.25 0.21 0.23 0.27 0.27 0.29 0.27 0.26 0.24 0.25 0.26 0.26 0.26 0.21 0.21 0.22 0.26 0.29 0.29 0.28 0.27 0.25 0.24 0.24 0.21 0.18 0.20 0.24 0.18 0.18 0.22 0.23 0.26 0.24 0.24 0.27 0.29 0.29 0.34 0.43 0.47 0.49 0.51 0.54 0.57
0.35 0.34 0.36 0.36 0.32 0.33 0.37 0.41 0.44 0.55 0.58 0.55 0.56 0.58 0.51 0.39 0.32 0.25 0.20 0.13 0.36 0.28 0.35 0.38 0.38 0.35 0.36 0.31 0.31 0.34 0.31 0.34 0.36 0.37 0.39 0.36 0.38 0.38 0.34 0.35 0.30 0.27 0.25 0.27 0.24 0.26 0.28 0.30 0.32 0.28 0.25 0.25 0.26 0.26 0.26 0.25 0.24 0.26 0.24 0.22 0.24 0.25 0.25 0.25 0.24 0.23 0.22 0.18 0.19 0.21 0.24 0.22 0.17 0.20 0.21 0.20 0.22 0.25 0.27 0.29 0.30 0.35 0.44 0.49 0.51 0.54 0.59 0.61
0.32 0.33 0.34 0.37 0.26 0.30 0.30 0.21 0.39 0.59 0.60 0.56 0.59 0.50 0.37 0.31 0.20 0.20 0.14 0.17 0.33 0.33 0.35 0.34 0.33 0.36 0.33 0.30 0.28 0.32 0.32 0.33 0.34 0.35 0.33 0.36 0.35 0.37 0.35 0.30 0.31 0.27 0.26 0.25 0.24 0.26 0.27 0.27 0.27 0.27 0.28 0.28 0.27 0.24 0.24 0.24 0.24 0.23 0.22 0.20 0.20 0.21 0.23 0.21 0.20 0.21 0.17 0.17 0.22 0.25 0.24 0.25 0.16 0.20 0.22 0.24 0.27 0.28 0.27 0.29 0.30 0.32 0.37 0.46 0.52 0.58 0.64 0.67
0.30 0.30 0.32 0.32 0.31 0.34 0.20 0.18 0.44 0.53 0.38 0.53 0.58 0.35 0.28 0.17 0.30 0.17 0.13 0.46 0.22 0.33 0.30 0.31 0.34 0.33 0.33 0.34 0.32 0.32 0.31 0.33 0.35 0.33 0.31 0.31 0.31 0.31 0.31 0.27 0.28 0.21 0.20 0.22 0.21 0.26 0.23 0.24 0.26 0.26 0.29 0.26 0.25 0.22 0.22 0.23 0.23 0.22 0.22 0.21 0.17 0.16 0.16 0.14 0.16 0.13 0.15 0.16 0.23 0.26 0.27 0.22 0.21 0.22 0.25 0.26 0.28 0.29 0.32 0.34 0.34 0.36 0.39 0.47 0.53 0.59 0.64 0.66
0.30 0.29 0.30 0.29 0.32 0.28 0.26 0.23 0.26 0.29 0.35 0.55 0.44 0.34 0.21 0.16 0.12 0.17 0.15 0.28 0.23 0.33 0.33 0.37 0.34 0.33 0.33 0.33 0.32 0.34 0.37 0.31 0.35 0.33 0.32 0.33 0.30 0.30 0.32 0.29 0.28 0.24 0.18 0.23 0.21 0.21 0.21 0.25 0.25 0.24 0.25 0.26 0.25 0.20 0.19 0.19 0.21 0.21 0.20 0.20 0.18 0.15 0.14 0.12 0.14 0.18 0.17 0.21 0.25 0.25 0.28 0.21 0.26 0.27 0.29 0.27 0.30 0.32 0.35 0.39 0.40 0.40 0.41 0.46 0.53 0.59 0.61 0.61
0.30 0.29 0.24 0.25 0.27 0.25 0.24 0.28 0.29 0.32 0.28 0.45 0.38 0.25 0.23 0.14 0.11 0.28 0.17 0.17 0.22 0.38 0.39 0.37 0.35 0.36 0.36 0.31 0.33 0.34 0.31 0.34 0.33 0.32 0.32 0.30 0.29 0.27 0.29 0.28 0.26 0.24 0.21 0.24 0.20 0.21 0.17 0.17 0.21 0.22 0.20 0.26 0.24 0.22 0.21 0.20 0.20 0.19 0.22 0.22 0.20 0.18 0.15 0.11 0.12 0.12 0.15 0.18 0.23 0.26 0.20 0.19 0.19 0.24 0.31 0.30 0.33 0.35 0.39 0.42 0.44 0.46 0.49 0.52 0.56 0.59 0.61 0.62
0.30 0.27 0.27 0.26 0.27 0.26 0.24 0.26 0.29 0.31 0.26 0.36 0.28 0.21 0.13 0.14 0.18 0.16 0.18 0.20 0.26 0.35 0.35 0.38 0.34 0.33 0.31 0.33 0.35 0.35 0.33 0.30 0.32 0.32 0.31 0.28 0.26 0.27 0.27 0.25 0.26 0.25 0.24 0.20 0.23 0.22 0.20 0.20 0.27 0.28 0.26 0.27 0.25 0.27 0.24 0.21 0.20 0.20 0.21 0.21 0.18 0.17 0.19 0.13 0.17 0.16 0.17 0.18 0.18 0.20 0.19 0.25 0.23 0.30 0.35 0.36 0.36 0.38 0.41 0.44 0.46 0.48 0.50 0.53 0.54 0.55 0.58 0.61
0.27 0.22 0.27 0.20 0.20 0.19 0.22 0.24 0.29 0.31 0.23 0.29 0.19 0.17 0.14 0.15 0.13 0.18 0.15 0.24 0.29 0.29 0.31 0.32 0.29 0.28 0.30 0.31 0.33 0.31 0.37 0.30 0.32 0.30 0.30 0.30 0.30 0.28 0.29 0.28 0.26 0.25 0.23 0.20 0.25 0.20 0.22 0.20 0.27 0.28 0.30 0.29 0.28 0.26 0.23 0.21 0.16 0.19 0.18 0.16 0.18 0.22 0.22 0.19 0.22 0.24 0.21 0.18 0.15 0.21 0.19 0.23 0.29 0.29 0.33 0.38 0.39 0.40 0.42 0.44 0.46 0.48 0.51 0.51 0.52 0.53 0.53 0.55
0.22 0.25 0.18 0.21 0.22 0.22 0.24 0.26 0.29 0.28 0.26 0.26 0.18 0.12 0.17 0.18 0.20 0.23 0.25 0.28 0.33 0.33 0.31 0.24 0.25 0.27 0.29 0.29 0.29 0.29 0.32 0.31 0.30 0.31 0.27 0.30 0.29 0.29 0.28 0.29 0.30 0.29 0.28 0.25 0.24 0.27 0.21 0.22 0.27 0.26 0.25 0.28 0.29 0.26 0.22 0.21 0.21 0.20 0.17 0.18 0.22 0.28 0.27 0.22 0.17 0.20 0.17 0.14 0.16 0.20 0.18 0.20 0.21 0.20 0.32 0.35 0.36 0.38 0.41 0.43 0.45 0.47 0.49 0.48 0.50 0.52 0.54 0.56
0.25 0.25 0.25 0.20 0.16 0.22 0.28 0.36 0.37 0.27 0.25 0.22 0.15 0.15 0.25 0.17 0.21 0.18 0.22 0.27 0.30 0.35 0.30 0.25 0.27 0.27 0.27 0.29 0.29 0.31 0.32 0.28 0.28 0.29 0.29 0.32 0.29 0.33 0.28 0.28 0.31 0.30 0.30 0.31 0.25 0.25 0.25 0.20 0.23 0.27 0.27 0.28 0.29 0.25 0.22 0.22 0.22 0.20 0.19 0.22 0.18 0.15 0.16 0.17 0.16 0.14 0.14 0.13 0.15 0.18 0.20 0.20 0.22 0.24 0.30 0.30 0.33 0.34 0.37 0.40 0.41 0.41 0.42 0.42 0.44 0.47 0.50 0.52
0.30 0.29 0.16 0.22 0.26 0.24 0.32 0.42 0.37 0.22 0.22 0.16 0.15 0.14 0.20 0.19 0.21 0.19 0.21 0.26 0.32 0.32 0.26 0.26 0.23 0.27 0.28 0.26 0.32 0.35 0.34 0.29 0.31 0.28 0.26 0.29 0.26 0.34 0.30 0.29 0.28 0.30 0.30 0.29 0.26 0.26 0.25 0.19 0.20 0.27 0.25 0.27 0.27 0.24 0.19 0.20 0.21 0.22 0.22 0.20 0.21 0.18 0.15 0.13 0.14 0.17 0.16 0.14 0.14 0.16 0.19 0.19 0.26 0.27 0.30 0.31 0.33 0.34 0.36 0.37 0.38 0.40 0.41 0.42 0.43 0.43 0.43 0.43
0.27 0.21 0.15 0.31 0.36 0.28 0.41 0.44 0.35 0.25 0.19 0.12 0.15 0.16 0.25 0.19 0.19 0.21 0.19 0.23 0.28 0.29 0.27 0.25 0.25 0.22 0.24 0.25 0.30 0.31 0.36 0.34 0.31 0.28 0.26 0.27 0.26 0.40 0.33 0.33 0.29 0.29 0.29 0.29 0.27 0.28 0.23 0.25 0.17 0.23 0.27 0.26 0.21 0.24 0.21 0.21 0.19 0.19 0.18 0.18 0.19 0.18 0.22 0.17 0.19 0.16 0.14 0.14 0.14 0.14 0.15 0.21 0.27 0.33 0.31 0.31 0.32 0.33 0.36 0.37 0.39 0.40 0.43 0.45 0.46 0.44 0.45 0.45
0.36 0.24 0.22 0.43 0.44 0.45 0.49 0.46 0.35 0.25 0.22 0.25 0.23 0.21 0.22 0.19 0.19 0.19 0.20 0.24 0.30 0.34 0.29 0.27 0.25 0.23 0.24 0.23 0.23 0.28 0.30 0.32 0.31 0.29 0.29 0.27 0.27 0.26 0.34 0.34 0.33 0.30 0.31 0.29 0.26 0.26 0.22 0.22 0.18 0.21 0.22 0.22 0.24 0.26 0.25 0.23 0.22 0.20 0.19 0.17 0.18 0.18 0.17 0.14 0.14 0.21 0.18 0.14 0.13 0.13 0.14 0.21 0.30 0.36 0.34 0.33 0.34 0.35 0.37 0.37 0.40 0.42 0.45 0.46 0.48 0.48 0.47 0.46
0.27 0.19 0.34 0.53 0.54 0.55 0.40 0.32 0.33 0.40 0.31 0.23 0.18 0.21 0.19 0.24 0.20 0.18 0.20 0.25 0.29 0.29 0.29 0.27 0.28 0.26 0.24 0.23 0.24 0.23 0.27 0.30 0.32 0.30 0.31 0.29 0.34 0.30 0.31 0.34 0.34 0.34 0.30 0.27 0.26 0.30 0.27 0.25 0.21 0.19 0.21 0.22 0.25 0.26 0.27 0.25 0.23 0.22 0.21 0.20 0.22 0.21 0.20 0.17 0.13 0.16 0.19 0.18 0.19 0.17 0.14 0.20 0.32 0.37 0.36 0.35 0.35 0.35 0.37 0.38 0.40 0.42 0.44 0.46 0.48 0.49 0.50 0.48
0.25 0.29 0.48 0.59 0.63 0.53 0.36 0.28 0.36 0.35 0.29 0.26 0.30 0.26 0.25 0.21 0.19 0.22 0.22 0.26 0.27 0.30 0.28 0.27 0.27 0.25 0.25 0.23 0.24 0.25 0.27 0.27 0.32 0.30 0.32 0.32 0.32 0.35 0.36 0.35 0.33 0.33 0.33 0.30 0.30 0.30 0.32 0.23 0.20 0.20 0.23 0.25 0.26 0.26 0.26 0.26 0.24 0.21 0.22 0.22 0.20 0.18 0.20 0.18 0.16 0.18 0.15 0.19 0.17 0.20 0.16 0.22 0.30 0.34 0.35 0.37 0.37 0.38 0.40 0.42 0.41 0.45 0.48 0.49 0.50 0.51 0.52 0.50
0.31 0.36 0.46 0.61 0.66 0.61 0.41 0.32 0.32 0.32 0.29 0.30 0.28 0.25 0.29 0.26 0.24 0.23 0.23 0.27 0.27 0.28 0.26 0.26 0.27 0.27 0.24 0.27 0.26 0.25 0.29 0.24 0.31 0.31 0.31 0.33 0.32 0.40 0.40 0.38 0.37 0.31 0.31 0.29 0.26 0.30 0.23 0.25 0.21 0.19 0.18 0.20 0.20 0.22 0.21 0.23 0.22 0.21 0.20 0.21 0.21 0.21 0.20 0.22 0.21 0.21 0.16 0.19 0.18 0.15 0.14 0.24 0.32 0.37 0.36 0.36 0.36 0.37 0.38 0.41 0.43 0.44 0.48 0.52 0.52 0.53 0.52 0.52
0.36 0.43 0.49 0.58 0.67 0.64 0.45 0.47 0.40 0.35 0.32 0.30 0.29 0.26 0.27 0.26 0.27 0.27 0.27 0.27 0.29 0.28 0.27 0.26 0.28 0.28 0.28 0.28 0.28 0.28 0.30 0.27 0.26 0.33 0.35 0.33 0.33 0.38 0.40 0.39 0.39 0.35 0.34 0.36 0.33 0.33 0.26 0.25 0.22 0.17 0.15 0.14 0.14 0.15 0.15 0.16 0.18 0.20 0.21 0.20 0.20 0.19 0.18 0.16 0.14 0.16 0.14 0.20 0.18 0.18 0.20 0.25 0.31 0.33 0.33 0.34 0.35 0.37 0.40 0.42 0.45 0.48 0.49 0.50 0.51 0.51 0.49 0.49
0.31 0.24 0.38 0.45 0.58 0.57 0.53 0.55 0.44 0.37 0.32 0.29 0.24 0.25 0.26 0.23 0.24 0.27 0.29 0.29 0.30 0.30 0.31 0.30 0.30 0.28 0.26 0.26 0.25 0.26 0.27 0.31 0.28 0.29 0.31 0.30 0.31 0.35 0.38 0.39 0.38 0.37 0.37 0.35 0.33 0.32 0.27 0.28 0.25 0.22 0.19 0.17 0.18 0.20 0.22 0.19 0.18 0.16 0.17 0.17 0.18 0.20 0.21 0.18 0.17 0.15 0.14 0.16 0.16 0.20 0.23 0.25 0.27 0.30 0.32 0.33 0.35 0.36 0.36 0.39 0.42 0.44 0.46 0.48 0.50 0.51 0.53 0.53
0.40 0.31 0.34 0.33 0.46 0.47 0.45 0.47 0.43 0.41 0.35 0.34 0.25 0.27 0.26 0.26 0.26 0.27 0.34 0.29 0.33 0.31 0.31 0.29 0.29 0.26 0.26 0.25 0.25 0.26 0.29 0.30 0.32 0.30 0.31 0.31 0.31 0.32 0.37 0.38 0.39 0.39 0.37 0.35 0.34 0.29 0.25 0.22 0.24 0.23 0.22 0.22 0.22 0.20 0.20 0.19 0.17 0.18 0.17 0.17 0.18 0.19 0.19 0.18 0.16 0.14 0.17 0.14 0.14 0.24 0.24 0.21 0.24 0.29 0.32 0.34 0.36 0.37 0.39 0.39 0.40 0.43 0.46 0.47 0.50 0.52 0.53 0.53
0.24 0.36 0.42 0.45 0.41 0.36 0.37 0.40 0.43 0.41 0.39 0.37 0.30 0.30 0.28 0.27 0.26 0.25 0.33 0.34 0.33 0.33 0.29 0.29 0.28 0.30 0.30 0.28 0.26 0.24 0.28 0.28 0.29 0.28 0.31 0.32 0.30 0.31 0.29 0.32 0.33 0.34 0.33 0.31 0.33 0.29 0.24 0.21 0.23 0.21 0.21 0.22 0.23 0.22 0.22 0.21 0.20 0.18 0.19 0.19 0.18 0.18 0.18 0.17 0.18 0.19 0.18 0.14 0.14 0.21 0.22 0.22 0.28 0.32 0.34 0.36 0.38 0.38 0.40 0.42 0.45 0.47 0.48 0.49 0.50 0.51 0.51 0.52
0.29 0.35 0.44 0.49 0.37 0.40 0.42 0.44 0.45 0.42 0.38 0.36 0.32 0.30 0.28 0.28 0.27 0.30 0.31 0.32 0.31 0.33 0.33 0.26 0.27 0.29 0.30 0.31 0.28 0.25 0.27 0.23 0.25 0.31 0.31 0.30 0.29 0.28 0.26 0.28 0.29 0.31 0.31 0.30 0.29 0.29 0.25 0.22 0.22 0.21 0.21 0.22 0.22 0.22 0.22 0.20 0.18 0.18 0.17 0.17 0.18 0.19 0.19 0.19 0.20 0.21 0.19 0.19 0.22 0.23 0.21 0.23 0.28 0.32 0.36 0.39 0.40 0.40 0.40 0.43 0.44 0.45 0.47 0.48 0.48 0.49 0.50 0.52
0.24 0.30 0.35 0.45 0.42 0.38 0.39 0.38 0.39 0.38 0.36 0.37 0.31 0.31 0.30 0.29 0.28 0.31 0.33 0.32 0.29 0.30 0.37 0.30 0.30 0.31 0.31 0.30 0.28 0.25 0.28 0.29 0.31 0.29 0.33 0.32 0.30 0.29 0.27 0.28 0.28 0.30 0.29 0.27 0.28 0.28 0.24 0.21 0.22 0.22 0.20 0.20 0.22 0.22 0.22 0.20 0.18 0.17 0.19 0.19 0.17 0.18 0.20 0.21 0.21 0.22 0.22 0.23 0.25 0.23 0.21 0.22 0.31 0.35 0.37 0.39 0.39 0.39 0.39 0.38 0.39 0.42 0.46 0.48 0.47 0.48 0.49 0.50
0.36 0.41 0.41 0.36 0.32 0.35 0.38 0.39 0.38 0.37 0.36 0.37 0.33 0.33 0.32 0.32 0.30 0.33 0.32 0.35 0.32 0.31 0.32 0.30 0.32 0.32 0.33 0.32 0.30 0.29 0.32 0.32 0.32 0.33 0.34 0.34 0.30 0.33 0.28 0.28 0.29 0.26 0.27 0.27 0.27 0.26 0.25 0.24 0.26 0.23 0.19 0.19 0.22 0.21 0.20 0.20 0.19 0.18 0.18 0.19 0.19 0.18 0.15 0.18 0.17 0.21 0.19 0.20 0.22 0.22 0.21 0.22 0.30 0.35 0.36 0.36 0.35 0.35 0.36 0.38 0.39 0.40 0.43 0.44 0.44 0.46 0.49 0.53
0.41 0.44 0.44 0.37 0.25 0.32 0.32 0.36 0.38 0.36 0.31 0.37 0.36 0.34 0.33 0.34 0.35 0.34 0.31 0.35 0.35 0.35 0.35 0.35 0.34 0.33 0.32 0.31 0.31 0.32 0.35 0.35 0.36 0.36 0.36 0.36 0.37 0.36 0.35 0.32 0.30 0.28 0.27 0.26 0.29 0.25 0.24 0.23 0.21 0.21 0.17 0.17 0.20 0.20 0.20 0.19 0.18 0.16 0.18 0.22 0.24 0.23 0.23 0.23 0.24 0.25 0.24 0.23 0.19 0.16 0.19 0.27 0.31 0.34 0.31 0.33 0.34 0.36 0.37 0.39 0.41 0.43 0.45 0.45 0.46 0.47 0.48 0.50
Wind_Speed
15 15 15 15 15 15 15 15 15 16 16 16 16 16 16 16 16 16 16 16 16 16 16 16 17 17 17 17 18 18 18 18 19 19 20 19 19 20 20 19 19 19 19 19 18 17 17 17 17 17 16 15 15 15 16 16 15 14 13 13 14 13 13 12 12 13 12 13 13 13 12 10 12 12 10 10 10 9 10 12 13 13 13 14 14 14 14 13
15 15 15 15 15 15 15 15 15 15 15 16 16 16 16 16 16 16 16 16 16 16 16 16 16 16 17 17 17 18 18 18 19 20 20 19 19 20 21 20 20 19 19 20 19 18 17 17 17 17 16 15 15 16 16 16 15 14 13 14 14 13 13 13 13 14 13 14 15 14 13 11 12 13 12 12 11 10 9 11 10 9 10 11 13 13 13 12
15 15 15 15 15 15 15 15 15 15 15 15 15 16 16 16 16 16 16 16 16 16 16 16 16 16 16 16 17 17 17 17 18 18 18 18 19 20 21 21 20 19 19 19 19 19 19 17 16 16 16 16 16 16 16 15 15 15 15 14 14 14 13 14 15 15 15 14 13 15 14 11 13 13 13 13 13 11 11 11 10 9 10 11 13 13 12 12
15 15 15 15 15 15 15 15 15 15 15 15 15 15 15 16 16 16 16 16 16 16 16 16 16 16 16 16 16 16 15 15 16 16 15 15 17 18 20 20 20 19 19 19 18 19 19 18 17 17 17 17 17 17 16 16 16 15 15 15 14 14 14 16 17 16 17 16 13 14 13 12 14 13 12 12 12 14 14 14 12 11 11 12 13 13 13 12
15 15 15 15 15 15 15 15 16 15 15 15 15 15 15 15 15 15 15 15 16 16 16 16 16 16 16 16 15 15 14 13 14 15 14 14 15 17 18 19 19 19 19 18 19 19 19 19 18 17 17 17 17 16 16 17 17 15 16 16 16 15 14 16 17 16 17 17 14 13 13 14 14 13 13 13 13 15 16 15 13 12 12 13 13 13 12 12
15 15 15 15 15 15 15 16 16 15 15 15 15 15 15 15 15 15 15 15 15 15 15 15 15 15 15 15 15 14 13 13 13 14 14 14 14 16 17 18 18 18 18 18 19 19 19 19 18 18 17 17 17 17 17 18 17 16 16 16 17 16 15 17 16 15 16 15 13 14 14 14 14 14 15 15 16 17 16 14 12 12 12 12 12 12 12 12
14 15 15 15 15 15 15 16 15 15 15 15 15 15 15 15 15 15 15 15 15 15 15 15 15 14 14 14 13 13 13 14 15 14 14 13 14 14 16 17 17 17 18 18 19 19 19 19 18 18 17 17 17 17 18 17 16 17 16 16 18 18 18 19 17 16 15 14 13 14 15 15 14 15 16 15 15 15 13 11 11 10 10 11 11 12 12 12
14 15 15 15 15 15 15 15 15 15 15 15 15 14 14 14 14 14 14 14 15 14 14 14 14 13 13 13 13 12 14 15 14 14 13 13 13 14 15 16 17 17 18 19 19 18 18 18 19 18 16 17 17 17 17 16 16 16 16 16 17 17 18 19 19 17 16 15 15 15 15 16 15 14 14 13 12 11 10 10 10 10 9 10 10 11 11 11
14 15 15 15 15 15 15 15 15 15 15 15 14 14 14 14 14 14 14 14 14 14 14 13 13 13 12 12 12 12 13 13 13 13 13 13 14 14 15 15 16 17 18 18 18 17 17 17 18 16 15 16 16 17 16 15 16 16 16 16 16 18 19 18 18 17 16 16 15 14 14 16 15 12 11 11 9 9 9 9 10 10 10 10 10 10 10 11
14 14 14 15 15 15 15 15 15 15 14 14 14 14 14 14 14 13 14 14 14 13 13 13 12 12 11 12 11 10 12 11 11 12 12 13 13 14 15 15 16 17 17 17 18 17 17 16 15 15 15 16 16 16 16 15 16 16 16 16 17 18 19 18 17 16 16 15 14 14 14 15 13 10 10 11 9 9 9 9 10 10 10 10 9 9 9 10
14 14 14 14 14 14 14 14 14 14 14 14 14 14 13 13 13 13 13 13 13 13 12 12 11 11 11 11 10 10 11 10 10 11 11 11 12 13 14 15 15 16 17 17 17 17 16 16 15 14 15 15 15 15 16 15 15 16 16 16 16 15 16 16 15 16 15 14 14 14 14 13 10 9 11 11 10 11 11 11 10 10 10 9 9 8 8 9
13 14 14 14 14 14 14 14 14 14 14 14 14 13 13 13 13 13 13 12 12 12 12 11 10 10 10 10 11 11 10 9 9 9 9 10 11 12 13 13 15 16 16 15 15 16 16 16 16 16 16 14 14 14 14 15 14 16 15 14 14 12 14 15 15 16 14 13 13 12 11 11 10 11 12 12 12 13 12 12 11 10 10 8 8 7 7 8
13 13 13 13 13 13 13 13 13 13 14 14 14 13 13 13 13 13 12 12 12 11 11 10 10 9 9 9 10 10 9 9 9 9 8 8 9 10 12 12 14 15 15 15 15 16 16 16 16 18 17 14 14 14 14 14 13 14 13 13 13 12 14 15 15 16 14 13 12 10 10 12 11 11 12 13 13 13 11 10 10 10 9 9 8 7 6 7
12 12 13 13 13 13 13 13 13 13 13 13 13 13 13 13 13 12 12 12 11 11 11 10 9 8 8 9 10 9 9 9 10 10 9 8 9 10 11 12 13 14 15 15 15 15 15 15 15 16 16 15 15 14 13 12 12 12 11 12 12 12 13 14 14 15 14 14 13 11 12 13 12 11 12 15 15 13 11 10 10 9 10 10 9 7 6 7
11 12 12 12 12 12 12 12 13 13 13 13 13 13 13 13 13 12 12 12 11 11 10 9 9 8 8 10 9 9 9 9 10 11 9 9 10 10 11 12 13 14 14 15 15 15 14 14 13 13 14 14 13 12 12 12 11 10 10 10 10 11 11 10 12 13 13 13 12 11 12 12 11 11 13 16 16 15 13 11 10 10 11 11 9 7 7 7
11 12 12 12 12 12 12 12 12 12 12 12 12 12 12 13 13 12 12 12 11 11 10 9 9 8 8 9 8 8 8 9 10 11 9 10 11 10 10 12 12 13 14 15 14 14 14 12 12 13 13 13 12 10 11 11 11 10 9 9 9 10 10 8 9 12 13 12 11 12 11 10 10 12 14 17 18 16 13 12 11 11 12 12 10 9 9 9
11 11 11 11 11 11 11 11 11 12 12 12 12 11 11 11 11 12 12 12 11 11 10 9 9 9 9 9 8 8 9 9 9 10 10 10 11 11 10 10 11 12 13 13 12 13 12 11 12 13 12 12 11 10 9 10 11 10 8 9 10 11 11 10 10 11 12 13 13 12 12 11 11 11 12 16 18 16 13 12 12 13 13 12 11 10 10 11
11 11 11 11 11 11 10 11 11 11 11 11 11 11 11 11 11 11 11 11 11 10 10 10 9 9 9 9 8 8 9 9 10 10 10 11 11 11 10 10 10 10 11 11 10 10 10 9 10 11 11 11 11 11 11 11 11 11 9 9 9 10 11 12 12 13 13 14 14 12 12 13 11 10 10 14 18 17 14 13 13 13 14 13 11 11 11 12
11 11 11 11 11 10 10 10 10 10 10 10 10 10 10 10 10 10 10 11 11 10 10 11 11 10 9 9 8 7 8 9 9 10 11 11 11 11 10 10 9 9 9 9 9 9 9 8 8 10 12 12 12 13 13 13 11 11 11 10 10 10 10 11 14 14 13 13 13 12 13 13 10 11 12 13 16 17 14 13 12 13 14 13 12 12 12 12
12 11 11 10 10 10 9 9 9 9 9 9 9 9 9 9 9 9 10 12 13 13 13 12 13 12 11 10 8 7 8 9 9 11 12 11 10 10 9 10 10 9 9 9 8 8 8 8 9 11 13 12 14 14 13 13 12 12 11 11 11 10 10 11 12 13 12 12 13 12 12 12 10 12 13 11 14 14 13 12 12 13 13 13 13 12 12 12
12 12 11 11 10 10 9 9 9 9 9 9 9 10 10 9 9 10 11 13 14 15 15 15 15 15 14 12 10 9 9 10 11 11 12 11 10 9 9 9 9 9 9 9 8 7 7 9 10 12 13 12 12 13 12 11 12 12 11 10 10 10 10 10 9 10 10 11 12 10 10 10 10 12 13 12 12 14 13 13 13 14 14 13 14 13 12 12
13 12 12 11 11 10 10 10 10 10 10 10 10 10 10 10 10 11 11 12 14 15 16 16 16 16 16 14 13 12 11 11 12 12 12 12 11 10 10 9 9 10 9 8 8 7 7 9 11 13 12 10 10 10 10 10 11 11 10 9 9 9 9 8 7 7 9 10 12 11 10 11 11 12 13 12 13 15 15 15 15 14 14 13 13 13 12 12
13 13 12 12 11 11 11 10 10 10 10 10 11 11 11 11 11 11 11 12 14 14 15 16 16 16 16 15 14 13 13 13 12 12 13 12 12 12 10 9 10 10 9 9 9 9 9 9 11 12 10 9 10 10 10 10 10 11 10 9 9 8 7 7 6 6 9 11 12 11 10 11 10 10 12 11 12 16 16 16 15 15 15 14 14 14 13 13
14 13 13 13 12 12 11 11 11 10 10 11 11 11 11 12 11 11 11 11 12 13 14 15 15 16 16 15 13 12 13 14 12 12 13 13 12 11 11 10 10 9 9 10 10 10 11 10 9 9 8 10 11 11 11 10 11 12 12 11 10 9 8 8 7 6 8 9 9 8 8 11 10 10 11 10 10 15 16 15 15 15 16 16 15 15 14 14
15 14 14 13 13 12 12 11 10 10 11 11 11 11 11 11 11 10 11 10 11 12 12 13 13 15 16 15 13 13 14 14 13 13 14 14 12 10 10 11 10 11 11 11 10 11 13 13 11 10 10 11 11 12 11 10 10 11 12 13 12 10 10 10 9 7 6 8 10 8 8 12 12 11 13 11 9 12 15 15 16 17 16 16 16 16 15 14
15 15 14 14 13 13 12 11 10 11 11 12 11 11 11 10 10 9 10 10 11 11 10 11 12 14 15 15 14 13 12 14 15 15 15 16 14 11 10 11 11 11 12 11 10 11 12 13 13 11 11 11 11 12 12 10 9 10 12 13 13 11 10 11 11 9 8 9 10 8 9 12 12 12 14 12 10 12 14 15 17 17 16 17 18 16 15 14
16 16 15 14 14 13 12 11 11 12 12 12 12 11 11 10 9 9 9 9 10 10 9 10 11 12 14 15 14 12 11 13 14 16 17 17 16 13 12 12 11 11 11 10 10 11 10 10 11 11 11 11 11 11 12 10 10 11 12 13 13 11 10 10 9 9 10 10 10 8 8 10 12 13 13 12 11 12 14 15 16 17 17 17 18 16 16 15
17 17 16 15 14 13 12 12 12 11 11 12 12 11 11 10 9 9 7 7 9 8 8 9 10 10 12 14 14 14 12 10 10 13 17 17 16 14 13 13 12 13 12 10 12 12 10 9 11 11 11 11 11 12 12 11 11 13 12 13 13 12 11 10 9 9 10 10 11 11 9 10 12 13 12 12 12 13 14 16 17 18 19 19 18 18 17 16
18 18 17 16 15 14 13 13 12 11 11 11 11 12 12 10 9 8 7 8 9 8 8 10 10 10 11 12 14 15 13 10 9 11 14 16 16 14 14 15 14 14 14 13 13 13 11 12 12 11 11 11 11 12 11 11 12 13 12 12 13 11 11 11 10 10 9 10 13 13 12 11 12 13 12 11 12 14 15 16 17 19 20 20 19 18 17 16
19 18 18 18 16 15 14 14 14 13 12 12 12 12 11 10 9 8 8 9 9 9 9 9 10 11 11 11 13 15 14 11 10 10 11 14 15 13 12 14 13 13 14 13 13 14 13 13 13 11 11 12 11 10 10 11 12 12 11 11 11 11 12 12 11 11 9 11 14 13 12 12 11 12 12 12 13 14 15 15 16 17 19 19 19 18 16 15
20 19 19 18 17 16 15 15 14 13 12 12 12 11 10 10 9 9 9 9 9 9 8 8 9 11 11 11 12 15 14 13 11 11 11 12 13 13 12 12 11 11 13 12 13 13 12 12 12 12 12 11 10 10 10 10 9 9 10 11 11 11 11 11 12 12 11 13 14 13 11 11 11 12 12 13 14 14 14 15 16 16 17 17 17 17 16 15
21 20 19 19 19 18 17 17 15 14 14 13 12 11 10 10 11 11 10 8 8 9 8 8 9 10 12 12 12 13 13 13 13 13 13 12 12 14 13 13 13 11 12 13 12 11 11 12 13 12 12 11 10 10 10 9 8 8 9 9 10 10 9 10 12 12 13 14 13 12 11 11 13 14 13 13 14 13 12 14 16 15 15 15 15 16 16 15
21 21 20 20 19 19 19 19 18 17 15 13 12 11 10 10 11 12 11 9 8 7 7 8 9 9 11 12 12 13 12 13 14 14 14 13 12 13 13 13 13 12 13 13 12 11 11 12 12 12 11 11 10 10 10 11 10 9 10 10 10 9 8 10 12 11 12 14 13 13 12 12 13 14 14 14 14 13 12 13 14 13 13 13 13 14 14 13
22 21 20 19 20 20 21 20 19 17 15 14 12 11 11 12 12 11 12 11 10 8 7 8 9 10 11 13 13 13 12 13 14 15 14 13 12 13 13 12 13 13 12 12 12 12 10 10 11 11 12 11 10 11 11 12 11 11 11 10 10 10 10 11 11 11 12 12 13 13 12 12 12 13 15 14 13 13 12 12 12 11 11 11 11 11 11 11
23 21 20 20 20 21 22 21 20 18 16 15 13 13 14 14 12 11 11 12 10 9 9 9 10 11 12 12 13 14 13 12 14 14 14 14 14 13 12 13 13 13 12 13 13 11 11 11 11 12 12 11 10 10 10 10 11 11 10 9 10 11 11 10 10 12 11 10 12 12 12 13 13 13 13 10 9 11 12 12 12 11 11 11 10 10 10 9
22 21 20 20 20 21 21 21 20 19 18 16 15 16 17 15 13 12 11 11 10 10 10 10 10 11 12 11 11 12 13 12 13 14 14 14 14 14 13 12 12 13 14 13 13 11 10 11 11 10 10 10 10 10 9 9 11 10 8 10 11 11 10 9 10 10 8 8 11 11 12 13 12 12 10 7 9 11 11 11 12 13 13 12 11 11 10 9
21 20 19 20 21 21 20 20 19 19 18 17 17 18 18 16 15 14 12 11 10 10 10 10 10 10 12 12 10 9 10 12 13 14 15 14 13 14 14 14 13 14 15 13 13 12 11 10 10 8 7 9 10 9 8 9 9 8 7 10 9 7 7 7 8 8 6 8 10 9 10 10 9 10 9 9 12 12 11 11 12 13 13 12 12 12 11 10
19 18 18 19 20 21 20 19 19 19 18 17 19 19 18 16 15 15 14 13 12 11 11 11 11 11 10 12 12 10 10 11 12 14 15 14 14 13 12 13 14 14 15 14 13 13 11 10 10 9 8 8 8 7 7 8 8 8 8 9 8 8 8 8 7 8 7 8 9 8 8 8 8 9 9 11 14 14 13 13 12 13 13 12 12 12 12 11
17 16 15 15 16 18 19 18 18 18 17 18 19 19 18 17 16 16 16 15 14 13 12 12 12 11 10 11 13 13 11 12 13 14 14 14 15 13 11 11 11 13 15 14 14 14 11 11 11 10 10 8 7 7 6 7 8 9 8 9 9 10 10 9 8 8 8 8 8 7 6 6 7 9 9 11 15 15 14 14 13 13 13 13 13 12 12 12
15 14 14 13 12 15 18 17 17 17 17 18 19 18 18 17 16 17 17 17 16 14 14 13 12 12 12 11 11 12 13 14 14 13 13 12 13 13 12 11 11 12 12 12 14 14 12 12 12 12 10 8 8 8 7 7 8 8 8 9 10 11 10 9 9 8 7 7 8 7 7 7 8 8 8 10 13 14 15 14 13 13 12 12 12 12 12 12
12 13 14 12 11 14 17 16 17 16 16 17 17 17 18 18 17 17 18 18 17 16 15 15 14 14 14 12 11 11 12 14 16 15 13 12 11 11 12 12 13 13 11 10 13 14 13 13 14 13 12 10 10 11 9 9 9 8 8 9 10 10 10 9 9 9 8 8 8 8 8 9 9 8 8 9 10 12 13 13 13 13 13 13 13 12 12 11
11 12 14 12 11 15 17 15 15 15 14 15 16 16 17 18 18 17 17 17 17 16 16 16 15 15 14 14 14 12 11 13 16 17 16 15 14 13 11 10 11 14 14 13 14 14 14 13 13 13 14 14 13 12 9 8 8 7 6 6 8 9 10 9 10 10 9 8 9 8 8 10 10 10 10 10 9 9 10 11 11 11 12 12 12 12 12 11
12 13 15 13 12 15 16 13 14 14 14 14 15 16 16 17 17 17 16 17 17 16 15 15 15 14 13 14 15 13 12 12 14 16 15 15 16 16 12 9 9 12 15 15 15 15 13 13 12 13 15 15 14 11 9 8 8 7 7 7 7 8 10 11 12 11 9 9 9 8 9 10 11 11 12 10 8 7 8 9 10 11 11 11 11 11 12 12
12 13 13 12 11 13 14 13 14 15 14 14 13 14 15 16 17 17 16 16 17 17 17 16 15 15 14 13 14 14 13 13 13 13 13 15 16 16 14 12 11 12 14 16 17 15 14 14 13 11 12 14 14 12 11 11 10 9 10 9 8 8 9 10 11 10 9 10 9 9 9 10 10 10 11 10 9 9 9 9 10 11 11 11 12 12 12 12
12 12 12 11 10 11 12 12 14 14 14 14 14 15 15 15 16 17 17 15 15 15 16 16 16 14 14 13 14 14 14 13 13 12 12 14 15 14 15 16 14 13 13 14 14 14 14 15 14 13 13 14 15 14 13 13 13 12 12 11 10 9 9 10 10 10 10 11 10 9 11 12 11 11 10 10 10 11 11 10 11 11 12 13 13 13 13 13
11 12 12 12 10 10 12 11 11 12 13 13 14 14 14 14 15 16 16 15 14 14 14 15 15 15 15 14 14 13 13 13 13 12 12 14 15 14 14 15 15 15 14 13 13 13 14 14 15 15 15 15 16 16 15 14 13 14 14 13 12 11 10 11 11 11 12 12 11 11 12 11 12 13 12 12 11 11 12 11 11 12 13 14 14 15 15 15
10 11 11 12 11 11 12 12 11 11 12 11 12 12 12 12 13 13 13 13 14 14 14 13 14 16 16 16 15 14 14 14 13 13 13 14 15 14 12 12 14 14 15 15 15 14 13 14 15 15 16 17 16 16 16 15 14 14 14 14 13 12 12 11 12 13 13 12 12 13 12 11 13 14 13 14 13 13 13 13 12 13 14 14 15 15 16 16
8 10 10 10 11 11 11 12 12 12 10 9 11 11 10 9 10 11 13 13 12 14 15 13 13 14 15 15 16 15 16 15 13 13 13 13 15 14 13 13 14 14 14 16 16 16 15 16 17 16 16 16 16 15 15 15 15 14 13 14 14 13 12 13 14 15 14 13 14 14 12 11 13 14 14 14 14 14 14 14 13 14 15 15 15 16 16 17
5 8 9 9 10 11 10 11 13 11 8 9 10 10 9 9 9 10 12 13 13 13 14 14 13 12 13 14 16 16 16 16 15 15 14 13 14 14 14 14 15 14 15 15 16 16 16 17 18 16 16 16 16 15 14 14 15 15 14 14 15 14 13 13 14 14 13 13 15 14 11 12 14 16 16 16 15 15 14 14 14 14 15 16 16 17 18 19
2 6 8 8 9 9 9 9 11 11 9 9 10 9 8 9 9 10 11 12 13 14 14 14 13 12 12 13 14 16 17 17 17 17 16 15 14 14 14 15 16 16 15 16 16 16 16 17 18 16 15 17 17 15 14 15 15 14 15 16 16 15 14 14 15 15 14 14 15 14 13 14 16 17 17 16 15 14 14 15 15 15 15 15 17 18 19 20
2 3 7 9 9 8 7 7 9 10 10 9 9 9 9 8 9 11 11 10 11 13 14 15 14 14 14 12 12 15 17 17 18 19 18 18 17 16 16 16 16 16 16 17 17 17 16 18 18 16 16 18 18 15 15 16 15 15 15 17 17 16 15 16 17 17 16 16 16 15 14 16 18 19 18 16 15 15 15 17 17 17 16 16 17 19 20 20
7 2 3 7 8 7 7 8 8 8 8 8 8 9 9 8 9 11 12 11 10 11 12 13 14 15 14 13 14 16 17 18 19 20 19 19 19 19 19 19 18 17 18 18 17 18 18 18 18 18 17 19 19 17 16 16 16 17 18 18 18 16 15 15 16 16 16 17 17 17 17 18 20 20 19 18 17 17 17 18 18 18 18 17 18 18 19 20
Wind_Direction
278 276 274 273 271 269 269 268 268 268 267 267 266 265 265 265 265 265 265 265 266 266 266 266 266 266 266 266 266 266 266 264 263 259 254 252 247 241 238 235 236 236 235 236 238 238 237 235 236 234 236 239 239 241 243 241 239 238 240 241 244 240 236 230 227 238 248 258 267 266 260 252 259 267 264 261 266 266 275 280 271 269 259 243 236 222 221 226
278 277 275 274 272 270 269 268 268 268 268 267 266 265 265 265 265 265 266 265 266 266 266 266 266 266 266 267 267 268 268 265 263 259 254 252 246 239 236 235 236 234 231 233 235 234 233 232 233 232 234 238 238 240 241 241 238 236 239 241 241 236 236 235 234 244 252 260 268 264 262 259 253 259 261 259 263 262 271 279 273 266 256 241 227 220 224 222
277 277 275 274 272 270 269 268 268 268 268 268 267 266 265 265 265 265 266 266 266 266 265 265 266 266 267 267 268 269 268 266 262 257 254 251 245 240 236 235 235 231 229 232 233 231 230 231 234 234 235 237 238 238 238 239 239 238 238 242 243 238 239 242 241 246 252 259 265 263 266 262 255 261 260 255 258 257 255 263 270 263 245 232 226 224 223 221
278 276 275 273 271 269 268 268 267 268 268 268 268 267 266 264 264 265 266 266 266 266 265 266 266 266 267 268 269 270 268 265 258 252 253 251 243 238 235 234 233 229 230 232 231 230 231 232 235 237 235 236 237 236 235 236 239 239 237 240 243 242 241 242 243 247 255 260 259 264 271 265 262 268 263 253 259 263 254 249 252 244 231 226 226 226 225 223
278 276 275 273 271 269 268 267 267 267 267 268 268 267 266 265 264 265 266 266 266 266 266 266 266 266 267 268 269 269 265 260 253 250 252 251 243 237 232 231 230 228 229 230 229 230 230 231 233 236 235 233 234 234 235 235 236 241 242 242 243 243 242 242 244 250 258 261 259 263 269 266 266 268 264 256 257 260 256 248 241 229 222 220 220 224 225 220
279 277 275 274 271 270 268 268 267 267 267 267 267 267 266 265 264 265 266 266 265 265 265 265 266 266 267 269 267 264 259 253 252 252 251 249 244 236 230 228 227 227 228 229 228 228 228 229 230 233 233 231 231 231 234 235 236 243 246 245 246 244 241 242 246 253 257 260 261 260 261 265 267 268 267 261 256 253 250 245 236 226 220 215 214 219 221 218
280 279 277 275 273 271 269 268 267 266 266 266 267 267 266 265 264 264 265 266 265 264 265 265 266 266 268 268 263 260 256 253 254 251 248 247 244 236 229 226 225 225 227 227 226 226 227 228 229 231 231 231 231 230 234 236 235 240 246 246 247 245 242 243 247 251 253 256 260 260 262 264 262 267 268 264 259 248 241 234 224 221 214 210 211 213 216 219
281 280 278 276 274 272 270 269 268 266 266 266 266 266 266 265 264 264 265 264 264 263 264 264 265 265 266 265 260 260 256 253 254 249 246 247 244 236 228 225 224 224 225 224 222 222 225 228 230 232 231 231 231 231 234 239 239 239 244 247 247 246 244 245 248 250 252 254 256 259 262 262 260 263 264 260 253 235 225 217 214 212 204 205 208 210 214 219
283 281 278 276 275 273 271 269 268 267 266 265 265 265 265 265 265 265 263 263 263 261 262 263 264 263 263 262 259 260 254 252 253 246 245 248 243 234 228 225 222 221 221 221 219 220 225 227 229 230 230 233 233 233 234 239 243 239 240 246 248 248 246 247 249 250 251 251 253 258 262 263 260 258 261 256 236 218 211 206 206 201 198 205 211 214 217 220
284 282 279 277 275 274 272 270 268 267 266 265 264 264 264 264 264 264 262 262 260 260 261 261 263 261 261 260 255 254 253 252 251 243 245 245 238 231 227 224 219 217 217 216 215 218 221 222 224 230 235 237 235 236 236 236 242 243 244 249 249 247 246 247 250 252 252 251 252 255 260 262 255 244 252 251 224 202 197 196 197 196 200 207 212 219 223 225
285 283 281 279 276 275 273 272 269 267 266 264 264 263 263 263 262 262 261 261 259 259 260 260 261 260 261 260 251 249 251 250 247 243 244 239 231 227 223 220 216 213 212 211 214 217 220 222 229 236 238 237 238 241 240 237 246 253 252 253 251 248 247 244 245 250 251 251 253 253 256 256 247 238 235 233 213 194 190 192 196 200 206 210 213 221 226 229
285 284 282 280 277 275 273 272 270 268 266 264 264 262 262 262 261 260 260 259 258 257 258 258 258 257 261 261 251 249 249 245 242 242 242 234 228 224 217 215 213 209 207 210 217 220 223 229 235 237 236 236 238 241 241 243 252 255 250 247 251 255 251 245 241 246 247 248 252 251 255 250 243 241 227 215 204 195 193 196 203 208 209 210 211 219 227 230
286 285 283 281 278 276 273 272 270 269 267 265 263 262 261 261 260 259 258 258 256 256 257 256 257 258 260 258 251 250 249 243 238 237 236 228 223 219 213 210 208 207 208 213 220 223 227 234 237 235 237 236 234 237 242 247 249 250 248 242 250 259 254 246 240 242 244 246 246 239 249 246 241 243 227 210 201 199 200 202 209 210 205 206 206 214 228 230
289 286 284 283 280 277 273 271 270 269 267 265 264 262 261 260 259 259 257 256 254 254 255 253 255 255 255 253 250 252 250 240 231 229 229 222 217 217 213 209 209 210 214 219 224 228 233 240 239 234 234 233 233 239 242 243 241 245 249 245 248 252 251 249 240 239 242 245 237 228 242 243 238 242 226 211 203 203 205 205 207 202 199 202 205 214 223 222
292 288 286 284 281 278 274 271 270 269 267 266 265 264 261 260 259 257 255 253 251 251 251 250 250 251 257 254 251 252 245 232 224 223 225 219 214 216 213 210 213 215 218 223 226 232 238 243 238 230 232 233 234 238 236 238 240 239 243 247 246 241 248 253 237 229 231 239 229 219 236 240 235 239 225 214 210 206 204 205 204 198 198 201 207 214 213 211
296 292 288 285 283 279 276 273 270 268 266 265 265 263 261 259 257 256 254 251 249 248 247 247 244 245 251 250 250 250 238 226 220 218 222 218 210 210 210 212 216 217 220 224 228 234 239 240 234 229 230 230 228 228 232 239 241 235 231 238 242 240 251 256 238 227 222 229 226 217 231 235 234 242 227 213 210 207 207 211 207 201 202 206 211 211 208 210
302 296 292 288 284 281 278 274 269 266 264 263 262 260 258 258 257 256 253 249 246 244 242 244 243 242 243 244 249 244 230 225 221 216 218 213 208 208 210 216 218 219 222 226 229 232 235 234 230 229 226 223 222 220 229 236 233 233 234 239 245 244 249 252 250 240 222 224 229 225 228 229 241 251 225 204 204 206 209 214 213 208 209 213 217 217 217 217
308 302 296 292 286 282 278 275 270 265 262 261 259 256 255 255 255 253 249 244 242 241 242 240 237 237 238 237 241 238 227 223 220 214 212 210 210 210 212 220 218 215 221 224 226 225 228 230 224 223 224 221 218 213 221 225 221 229 238 245 251 250 249 249 254 244 222 222 229 230 229 230 246 249 216 200 199 203 210 213 214 215 214 217 223 224 221 219
314 309 302 295 289 284 278 276 273 266 262 259 256 254 252 252 252 247 240 238 237 236 240 235 224 226 233 231 235 240 229 218 214 211 211 212 213 212 213 221 218 208 211 213 218 220 217 224 223 217 218 220 217 212 216 221 222 231 237 238 242 251 254 252 255 243 220 218 225 225 222 224 236 229 217 210 201 203 212 214 216 217 216 220 225 224 219 219
314 313 309 301 293 286 280 277 273 267 261 255 253 252 249 249 250 248 244 242 239 237 241 236 225 229 239 239 237 239 231 219 213 212 213 211 210 211 212 218 216 211 208 202 212 221 210 216 222 213 212 218 220 218 221 230 235 235 235 236 237 247 261 266 261 238 208 208 221 220 214 219 227 221 222 220 207 210 217 219 220 217 218 221 223 221 217 220
312 311 310 305 296 287 279 275 271 267 261 254 253 253 251 250 250 256 255 249 246 241 242 239 230 233 241 242 240 240 237 227 219 216 214 212 207 209 213 212 210 214 213 205 213 224 212 215 219 211 211 216 220 223 227 235 235 231 230 236 242 250 262 270 260 230 204 205 217 213 206 217 226 225 228 221 212 222 220 217 220 215 219 223 220 219 217 220
307 306 306 305 299 289 279 272 269 267 263 257 254 253 255 255 254 263 262 254 251 244 241 240 237 238 242 242 240 239 239 229 223 221 216 212 209 210 214 209 206 214 216 212 218 225 219 218 217 215 213 215 225 229 228 230 230 233 234 235 243 252 261 262 244 220 210 209 217 215 208 219 227 229 235 225 216 227 220 211 216 215 219 224 219 218 219 219
304 302 301 300 298 292 280 271 268 266 262 255 250 251 259 263 263 268 264 257 257 250 242 239 237 237 239 239 234 229 231 226 222 223 216 211 211 210 212 210 208 215 216 211 210 211 213 216 219 222 217 217 231 233 230 237 241 243 239 233 239 248 253 247 230 217 215 212 215 218 220 230 233 232 240 235 220 225 224 216 218 216 214 218 218 217 218 220
301 300 298 296 295 292 281 272 267 262 259 254 252 258 267 268 265 265 262 257 256 253 245 238 234 233 232 233 229 226 229 226 222 222 214 210 210 210 213 212 211 218 217 210 208 212 220 229 233 232 223 219 228 232 229 236 246 248 237 227 230 236 236 231 227 225 225 223 219 222 238 243 238 233 241 247 225 220 229 229 223 219 215 215 218 221 222 222
298 296 295 294 292 290 282 272 260 256 258 254 256 267 273 268 261 259 262 261 256 252 247 237 230 230 228 229 232 230 229 227 225 221 214 210 209 209 217 217 216 222 222 216 216 223 234 243 244 238 231 224 224 229 229 228 240 250 240 224 221 225 230 234 235 229 230 242 239 232 244 248 245 238 236 244 235 223 232 232 225 224 224 222 223 226 226 223
294 292 292 291 289 289 281 267 256 259 260 253 258 270 273 269 264 259 260 264 260 249 242 233 227 228 227 229 232 227 229 233 230 223 216 214 214 215 221 223 224 225 222 223 228 232 241 247 239 232 228 220 218 227 233 229 229 242 237 220 214 219 225 233 234 227 227 240 244 236 235 244 250 245 235 234 234 232 235 237 234 232 231 228 226 226 227 226
291 289 288 286 286 285 275 263 261 261 257 255 262 268 271 274 271 264 260 262 259 247 238 232 228 229 229 229 225 218 231 238 228 222 217 216 219 220 224 228 228 226 223 229 238 237 244 250 235 225 223 217 218 230 236 230 225 239 237 217 214 219 220 225 225 228 235 240 251 251 235 241 249 244 240 235 235 239 237 236 237 234 230 228 226 225 226 226
286 285 284 282 281 278 269 264 263 258 254 259 265 264 268 275 268 260 254 252 252 243 235 233 230 230 230 227 219 216 229 232 223 224 219 215 219 221 225 229 226 227 227 228 238 239 241 244 230 220 222 225 230 237 236 232 234 241 233 217 218 219 216 220 222 231 244 244 252 257 243 243 249 244 245 245 241 243 239 233 232 231 229 227 224 225 225 227
283 281 280 278 276 271 264 261 257 255 258 264 267 264 266 268 259 251 247 247 251 247 240 236 231 231 231 226 219 220 227 227 226 230 219 214 219 222 227 232 230 233 232 227 234 240 239 237 231 221 225 233 238 242 236 230 235 235 225 220 224 224 223 225 227 235 248 247 248 254 249 245 251 248 247 249 244 242 242 240 237 233 229 226 225 226 229 231
283 279 276 274 271 265 261 259 253 253 260 266 266 263 262 258 247 244 248 248 250 249 243 238 234 231 229 227 225 224 226 226 226 225 217 214 220 224 230 235 233 232 234 235 235 240 244 241 235 228 230 232 234 243 241 228 228 230 228 229 231 236 237 235 238 241 247 251 248 250 250 244 249 251 245 245 246 242 241 243 239 233 227 224 226 228 230 232
282 279 274 269 265 261 259 255 250 250 260 265 263 259 254 249 241 237 244 249 252 251 245 240 238 232 227 228 227 225 227 229 226 222 220 218 218 225 233 236 235 232 236 241 240 244 252 246 236 235 235 231 231 247 251 236 229 230 230 228 228 240 246 244 250 246 239 246 248 250 253 244 244 250 247 247 251 248 240 236 233 228 222 222 224 224 225 227
281 277 273 266 261 258 253 250 250 254 261 262 258 251 244 243 242 237 242 254 253 245 238 236 240 236 232 232 228 223 225 228 226 223 224 221 217 223 230 233 233 234 235 236 238 245 250 244 241 242 239 230 229 245 253 245 237 231 226 219 218 233 243 243 248 244 237 241 247 252 255 248 247 250 249 253 258 255 238 227 226 222 219 222 223 222 223 225
281 277 272 264 258 255 251 250 253 255 257 254 249 244 235 236 241 237 238 245 239 235 240 241 242 237 231 232 230 225 225 228 225 222 224 223 222 227 236 236 227 224 229 230 232 238 245 250 247 242 240 233 225 232 240 237 232 228 223 217 216 222 233 243 246 244 241 243 246 252 252 251 256 256 252 254 256 248 228 215 216 216 216 222 223 222 224 226
281 276 270 262 256 253 250 249 249 249 249 245 242 239 232 234 241 239 238 239 236 241 252 251 249 244 235 232 229 222 223 228 223 218 221 222 224 231 238 238 225 219 223 226 229 230 237 250 244 233 236 237 229 228 227 225 227 231 227 222 225 225 228 241 242 237 240 244 249 256 252 248 255 259 258 260 252 235 217 205 206 209 211 213 215 215 218 224
281 274 267 262 257 252 248 246 244 243 241 239 238 236 232 234 239 239 238 237 235 243 254 255 251 246 241 237 230 223 222 228 223 220 223 222 224 230 231 232 226 218 219 223 229 231 232 240 241 236 234 229 225 229 228 221 227 237 232 225 234 232 230 239 238 230 235 245 253 255 251 249 252 259 265 263 239 219 209 202 200 205 207 204 207 210 215 223
279 273 266 261 256 250 245 242 241 237 234 234 236 236 235 236 237 236 237 233 233 248 262 262 249 236 233 235 235 229 226 228 222 220 225 225 226 231 230 229 224 215 215 220 226 230 230 237 243 243 237 225 220 225 225 216 220 234 234 228 235 233 225 231 238 239 236 243 253 252 250 256 258 257 261 242 213 210 210 209 208 209 208 205 209 214 217 220
279 274 267 259 254 247 241 239 237 232 231 232 235 237 238 238 236 236 238 235 238 253 260 259 251 234 226 229 234 232 227 229 222 218 224 228 231 234 231 231 228 217 214 218 226 228 224 233 244 240 231 232 227 221 222 218 211 217 227 227 230 233 228 224 233 248 247 246 255 249 243 252 250 246 247 225 214 219 219 216 213 211 209 208 213 216 218 222
279 275 268 259 252 243 236 233 231 228 231 235 238 240 239 238 237 236 240 241 244 253 252 250 249 240 229 230 235 236 231 230 225 221 224 227 231 232 229 232 233 223 217 219 227 229 222 227 242 236 221 229 230 215 228 243 227 215 222 226 223 224 234 238 236 242 243 245 254 252 245 245 238 241 247 230 223 227 227 222 220 219 217 215 219 222 223 227
276 271 264 259 251 236 228 227 227 226 233 238 239 240 240 240 239 238 240 240 240 245 247 244 243 240 235 232 233 236 232 227 226 225 224 226 230 232 230 231 230 224 219 220 224 227 222 219 230 235 224 222 225 212 223 249 243 231 233 239 235 227 230 240 240 236 234 236 243 246 246 244 239 245 251 240 230 227 227 230 229 230 232 230 228 228 229 232
270 261 252 255 253 232 222 225 228 229 235 239 238 240 241 240 239 238 239 238 236 239 242 242 243 240 237 233 229 231 227 223 225 223 221 225 227 229 232 227 221 219 218 219 223 226 227 221 224 234 230 220 222 219 217 232 240 240 240 243 244 239 236 242 244 238 230 228 232 235 239 244 244 245 252 250 238 225 223 228 232 232 236 239 237 233 234 235
266 252 243 252 254 228 217 225 232 233 238 241 240 240 240 240 238 238 240 239 236 237 240 241 241 238 235 234 229 229 228 226 227 225 222 225 222 222 230 226 218 219 222 226 227 225 226 224 223 227 227 220 224 229 228 232 234 231 235 240 239 236 234 236 245 247 238 232 230 227 236 247 248 247 253 255 242 228 221 226 234 233 229 233 235 232 232 231
260 245 238 249 251 226 217 229 236 235 238 241 241 241 240 239 237 235 238 238 235 237 239 239 239 237 235 233 230 231 232 226 227 228 226 226 223 220 227 229 224 225 227 231 231 226 224 223 223 225 224 223 228 232 232 237 234 224 228 236 234 236 234 227 235 244 245 245 240 231 239 249 251 253 255 252 243 235 229 225 229 235 234 233 232 232 234 234
256 245 240 248 247 224 219 233 239 238 242 242 241 240 238 238 235 232 233 234 234 237 239 238 239 237 236 234 229 230 234 229 227 230 228 228 229 225 222 225 225 226 228 231 234 233 228 225 227 231 232 231 232 234 236 240 239 234 241 246 241 243 241 233 234 239 244 251 247 239 243 246 251 258 254 246 241 241 241 231 228 237 244 240 236 237 241 241
254 245 240 246 243 224 223 234 236 238 244 244 243 242 239 237 234 230 232 235 238 238 236 236 238 234 232 233 228 225 230 229 229 233 230 229 233 230 224 223 223 223 227 228 230 232 230 227 227 229 233 235 235 239 244 247 245 239 244 254 254 253 252 248 248 247 245 248 244 238 241 241 247 257 255 247 244 244 244 238 234 238 241 239 239 239 240 241
250 239 237 244 238 223 223 230 233 237 241 242 245 244 241 238 233 228 227 233 238 237 233 235 236 231 231 234 228 224 225 223 227 235 235 231 231 227 223 224 225 226 227 227 225 227 228 227 226 222 223 227 229 232 238 246 249 245 248 257 260 261 261 252 251 251 245 246 248 240 237 242 251 262 266 261 253 249 248 245 243 242 238 238 241 241 240 239
244 234 237 242 236 227 227 233 238 240 240 242 243 242 239 236 233 229 225 228 234 233 230 234 235 231 234 235 227 227 230 226 226 231 232 233 234 231 227 225 226 226 225 227 230 229 229 231 229 223 223 226 227 230 237 244 249 251 255 261 261 258 257 249 246 247 243 245 253 247 239 246 258 266 272 272 265 258 257 257 254 249 243 241 241 241 242 242
239 231 233 235 236 237 238 243 246 242 242 241 236 237 240 236 232 230 226 225 232 233 229 234 237 234 237 237 228 230 236 232 229 233 235 239 239 239 237 231 228 228 226 231 237 234 232 236 234 230 230 231 229 234 240 243 247 251 256 260 259 256 256 252 248 247 245 246 253 253 248 249 258 263 265 267 267 263 262 263 258 252 250 250 248 247 247 248
241 231 233 233 232 232 232 240 245 244 245 242 231 232 240 236 228 229 231 230 235 238 232 232 238 236 238 237 229 231 238 235 235 237 238 241 242 239 240 239 235 232 229 235 239 233 230 236 236 234 236 237 236 240 243 243 246 252 255 259 261 258 254 254 252 249 248 246 244 245 248 248 254 262 263 261 261 258 258 262 262 258 257 256 256 256 257 258
248 227 234 234 229 229 230 236 240 238 241 242 234 233 240 237 229 230 237 237 238 242 237 232 237 240 241 239 232 232 236 234 235 238 236 241 244 239 238 240 240 238 236 238 241 237 234 237 238 236 239 245 246 245 247 248 249 253 258 261 262 258 253 254 255 253 252 248 242 242 249 252 254 260 264 263 260 258 260 265 268 268 266 264 263 263 264 266
264 222 233 233 229 236 240 241 238 232 234 239 235 234 239 239 238 238 239 237 235 240 239 233 236 243 245 243 237 235 234 230 230 235 235 238 244 241 239 241 242 245 244 240 242 242 237 237 239 238 241 249 251 248 249 249 246 251 262 265 263 260 258 258 258 258 256 249 246 249 255 258 260 262 265 266 265 265 268 270 270 269 268 267 267 267 268 268
349 237 238 230 228 242 245 241 239 232 233 240 239 239 240 239 243 241 238 240 238 239 240 236 236 244 248 250 247 242 241 237 235 237 237 236 238 240 242 243 244 248 249 245 243 244 240 239 242 242 243 249 251 250 251 250 249 255 264 269 267 260 255 255 258 259 253 245 247 255 257 258 263 264 263 265 268 269 270 270 270 270 268 267 267 268 270 268
12 350 260 227 222 239 243 238 239 232 233 245 246 245 246 247 248 240 235 245 249 241 239 237 237 242 246 251 252 248 247 246 244 244 244 240 239 241 243 245 246 246 247 248 247 245 243 242 243 244 245 251 253 250 251 254 257 259 260 262 261 253 248 253 259 263 258 249 250 254 253 255 262 263 262 264 267 267 267 269 269 269 269 269 269 270 270 268